Flag for U.S.A. Weather past 2 weeks in Newark, New Jersey, U.S.A.

Now
33 °F

Overcast.


Feels Like: 27 °F
Forecast: 29 / 40 °F
Wind: 7 mph from North

Location: Newark International Airport

Current Time: Dec 20, 2014 at 9:53:20 PM

Latest Report: Dec 20, 2014 at 8:51 PM


Visibility: 10 mi

Pressure: 30.30 "Hg

Humidity: 61%

Dew point: 21 °F

Location of NewarkLocation

Historic Weather in Newark — Graph

°F

Newark temperature yesterday

Maximum temperature yesterday: 40 °F (at 1:51 PM)
Minimum temperature yesterday: 32 °F (at 7:51 PM)
Average temperature yesterday: 35 °F

Past Weeks' High & Low Weather Summary

 TemperatureHumidityPressure
High53 °F (Dec 17, 10:51 AM)100% (Dec 6, 12:51 AM)30.69 "Hg (Dec 6, 12:51 AM)
Low24 °F (Dec 8, 3:51 AM)30% (Dec 7, 4:51 PM)29.60 "Hg (Dec 10, 2:51 PM)
Average38 °F69%30.04 "Hg
* Reported Dec 5 8:51 PM — Dec 20 8:51 PM, Newark, Weather by CustomWeather, © 2014

Note: Actual official high and low records may vary slightly from our data, if they occured in-between our weather recording intervals... More about our weather records

Advertising

Newark weather history for previous 24 hours

 ConditionsComfort  
Time TempWeatherWind HumidityBarometerVisibility
8:51 PM
Dec 20
33 °FOvercast.7 mph61%30.30 "Hg10 mi
7:51 PM33 °FOvercast.9 mph61%30.28 "Hg10 mi
6:51 PM33 °FOvercast.8 mph61%30.29 "Hg10 mi
5:51 PM33 °FOvercast.8 mph61%30.29 "Hg10 mi
4:51 PM33 °FOvercast.6 mph61%30.27 "Hg10 mi
3:51 PM32 °FMore clouds than sun.6 mph64%30.27 "Hg10 mi
2:51 PM33 °FOvercast.3 mph61%30.26 "Hg10 mi
1:51 PM32 °FOvercast.9 mph64%30.27 "Hg10 mi
12:51 PM32 °FOvercast.8 mph64%30.26 "Hg10 mi
11:51 AM32 °FOvercast.7 mph64%30.29 "Hg10 mi
10:51 AM32 °FOvercast.7 mph64%30.30 "Hg10 mi
9:51 AM31 °FOvercast.6 mph67%30.31 "Hg10 mi
8:51 AM32 °FOvercast.7 mph64%30.29 "Hg10 mi
7:51 AM31 °FOvercast.8 mph67%30.27 "Hg10 mi
6:51 AM32 °FOvercast.9 mph64%30.27 "Hg10 mi
5:51 AM32 °FOvercast.5 mph64%30.26 "Hg10 mi
4:51 AM31 °FOvercast.3 mph67%30.24 "Hg10 mi
3:51 AM32 °FOvercast.8 mph64%30.22 "Hg10 mi
2:51 AM32 °FOvercast.7 mph66%30.21 "Hg10 mi
1:51 AM32 °FOvercast.14 mph64%30.19 "Hg10 mi
12:51 AM32 °FOvercast.10 mph64%30.19 "Hg10 mi
11:51 PM
Dec 19
32 °FOvercast.9 mph64%30.20 "Hg10 mi
10:51 PM32 °FPassing clouds.8 mph64%30.19 "Hg10 mi
9:51 PM32 °FPassing clouds.10 mph64%30.17 "Hg10 mi
Weather by CustomWeather, © 2014

See weather overviewHow to use our weather pages